Regional Weather Roundup
Issued by NWS Bismarck, ND

Home | Current Version | Previous Version | Text Only | Print | Product List | Glossary On
Versions: 1 2 3 4 5 6 7 8 9 10 11 12 13 14 15 16 17 18 19 20 21 22 23 24 25 26 27 28 29 30 31 32 33 34 35 36 37 38 39 40 41 42 43 44 45 46 47 48 49 50
000
ASUS43 KBIS 030502
RWRBIS

NWR BROADCAST TEXT
NATIONAL WEATHER SERVICE BISMARCK ND
1200 AM CDT MON AUG 03 2015

NOTE: "FAIR" INDICATES FEW OR NO CLOUDS BELOW 12,000 FEET WITH NO
SIGNIFICANT WEATHER AND/OR OBSTRUCTIONS TO VISIBILITY.


CITY           SKY/WX    TMP DP  RH WIND       PRES   REMARKS
WILLISTON      CLEAR     65  49  56 N3        30.02R
MINOT          CLEAR     61  50  67 W8        29.96R
MINOT AFB      CLEAR     54  51  88 NW7       29.96R
BISMARCK       CLEAR     58  52  80 CALM      29.98R
DICKINSON      CLEAR     59  49  69 CALM      30.02R
GARRISON         N/A     57  53  86 NW7       29.98R
HETTINGER ARPT CLEAR     54  47  77 CALM      30.04R
JAMESTOWN      CLEAR     60  52  74 W6        29.92S
HAZEN          FAIR      54  48  82 CALM      29.99S
OAKES            N/A     59  57  94 W5        29.93R
STANLEY        FAIR      57  54  88 NW7       30.02R
$$

CITY           SKY/WX    TMP DP  RH WIND       PRES   REMARKS
GRAND FORKS    CLEAR     57  49  74 NW7       29.86R
GRAND FORKS AF CLEAR     61  49  65 N10       29.87R
DEVILS LAKE    CLEAR     59  46  63 NW7       29.91S
FARGO          CLEAR     58  51  78 W7        29.87R
CAVALIER       FAIR      55  48  76 NW6       29.87S
GRAFTON        FAIR      59  52  77 NW7       29.87S
GWINNER        FAIR      61  54  77 W7        29.92R
LANGDON        FAIR      54  48  82 N8G15     29.91R
$$

CITY           SKY/WX    TMP DP  RH WIND       PRES   REMARKS
ABERDEEN       CLEAR     63  55  75 N3        29.94R
MOBRIDGE       CLEAR     59  56  89 N5        29.96R
BUFFALO          N/A     64  51  62 NE8       29.98S
RAPID CITY     CLEAR     66  53  63 NE3       30.03S
GLASGOW        CLEAR     65  48  54 E10       30.01S
SIDNEY         CLEAR     61  46  59 NW6       30.02R
WOLF POINT     CLEAR     65  48  54 E6        30.02S
GLENDIVE         N/A    N/A N/A N/A MISG        N/A
MILES CITY     CLEAR     71  49  45 NE9       30.00S
BAKER          CLEAR     60  46  59 E8        30.04F
$$

CITY           SKY/WX    TMP DP  RH WIND       PRES   REMARKS
BILLINGS       PTCLDY    72  42  34 N8        30.02R
GREAT FALLS    CLEAR     68  46  45 E7        29.96S
$$




USA.gov is the U.S. government's official web portal to all federal, state and local government web resources and services.